Regional Weather Roundup
Issued by NWS

Home | Current Version | Previous Version | Graphics & Text | Print | Product List | Glossary On
Versions: 1 2 3 4 5 6 7 8 9 10 11 12 13 14 15 16 17 18 19 20 21 22 23 24 25 26 27 28 29 30 31 32 33 34 35 36 37 38 39 40 41 42 43 44 45 46 47 48 49 50
000
ASUS44 KMEG 020300
RWRTN
TENNESSEE HOURLY STATE WEATHER ROUNDUP
NATIONAL WEATHER SERVICE MEMPHIS TN
900 PM CST THU DEC 01 2016

TNZ002-004-019-021-049-052-054-088>092-020400-
WEST TENNESSEE

CITY           SKY/WX    TMP DP  RH WIND       PRES   REMARKS
MEMPHIS INTL   PTCLDY    42  32  67 S3        30.12R
NWS MEMPHIS      N/A     38 N/A N/A MISG        N/A
JACKSON        CLEAR     33  30  88 CALM      30.12R
DYERSBURG      CLEAR    N/A N/A N/A SW3       30.12R
UNION CITY     CLEAR     34  30  86 CALM      30.08S
PARIS          CLEAR     30  27  86 CALM      30.09S
LEXINGTON      CLEAR     32  30  93 CALM      30.10S
$$

TNZ008-025-027-028-033-062-065-066-020400-
NORTH MIDDLE TENNESSEE

CITY           SKY/WX    TMP DP  RH WIND       PRES   REMARKS
NASHVILLE      CLEAR     43  26  51 W6        30.11R
CLARKSVILLE    CLEAR     37  26  64 CALM      30.11R
SMYRNA         CLEAR     36  31  82 CALM      30.12R
CROSSVILLE     CLEAR     31  26  82 CALM      30.07R
$$

TNZ061-075-076-078-094-096-097-020400-
SOUTH MIDDLE TENNESSEE

CITY           SKY/WX    TMP DP  RH WIND       PRES   REMARKS
TULLAHOMA      CLEAR     32  28  86 CALM      30.10S
WINCHESTER     CLEAR     34  30  86 CALM      30.11R
MCMINNVILLE    CLEAR     34  30  86 CALM      30.09R
SHELBYVILLE    CLEAR     36  32  87 E3        30.12R
$$

TNZ017-018-042-046-047-020400-
NORTHEAST TENNESSEE

CITY           SKY/WX    TMP DP  RH WIND       PRES   REMARKS
TRI CITIES     CLEAR     36  30  79 CALM      30.05R
$$

TNZ012-013-036-069-073-074-020400-
CENTRAL EAST TENNESSEE

CITY           SKY/WX    TMP DP  RH WIND       PRES   REMARKS
KNOXVILLE      CLEAR     42  28  57 S6        30.08R
OAK RIDGE      CLEAR     39  30  70 S3        30.09S
GATLINBURG     CLEAR     34  30  86 CALM      30.08R
$$

TNZ083-085-099-020400-
SOUTHEAST TENNESSEE

CITY           SKY/WX    TMP DP  RH WIND       PRES   REMARKS
CHATTANOOGA    CLEAR     40  33  76 CALM      30.10S
$$

SKY/WX REPORTED AS FAIR MEANS FEW OR NO CLOUDS BELOW
12 THOUSAND FEET.





USA.gov is the U.S. government's official web portal to all federal, state and local government web resources and services.